Year,Month,Day,Hour,Minute,Value (Times are PST for temperature in C)
2012,07,21,00,00,15.60
2012,07,21,00,02,15.60
2012,07,21,00,03,15.60
2012,07,21,00,04,15.50
2012,07,21,00,05,15.50
2012,07,21,00,06,15.50
2012,07,21,00,08,15.50
2012,07,21,00,10,15.60
2012,07,21,00,11,15.50
2012,07,21,00,12,15.60
2012,07,21,00,14,15.60
2012,07,21,00,15,15.60
2012,07,21,00,16,15.60
2012,07,21,00,17,15.60
2012,07,21,00,18,15.60
2012,07,21,00,19,15.60
2012,07,21,00,20,15.60
2012,07,21,00,22,15.60
2012,07,21,00,24,15.60
2012,07,21,00,25,15.60
2012,07,21,00,27,15.60
2012,07,21,00,28,15.60
2012,07,21,00,30,15.70
2012,07,21,00,32,15.70
2012,07,21,00,34,15.70
2012,07,21,00,36,15.70
2012,07,21,00,37,15.70
2012,07,21,00,38,15.70
2012,07,21,00,39,15.70
2012,07,21,00,40,15.70
2012,07,21,00,41,15.70
2012,07,21,00,42,15.70
2012,07,21,00,43,15.70
2012,07,21,00,45,15.70
2012,07,21,00,46,15.70
2012,07,21,00,47,15.70
2012,07,21,00,48,15.70
2012,07,21,00,50,15.70
2012,07,21,00,51,15.70
2012,07,21,00,53,15.70
2012,07,21,00,54,15.70
2012,07,21,00,55,15.70
2012,07,21,00,57,15.70
2012,07,21,00,59,15.70
2012,07,21,01,00,15.70
2012,07,21,01,02,15.60
2012,07,21,01,04,15.60
2012,07,21,01,06,15.60
2012,07,21,01,07,15.60
2012,07,21,01,08,15.50
2012,07,21,01,10,15.50
2012,07,21,01,11,15.40
2012,07,21,01,12,15.50
2012,07,21,01,13,15.40
2012,07,21,01,14,15.40
2012,07,21,01,16,15.40
2012,07,21,01,18,15.40
2012,07,21,01,19,15.40
2012,07,21,01,20,15.40
2012,07,21,01,22,15.40
2012,07,21,01,23,15.40
2012,07,21,01,24,15.40
2012,07,21,01,25,15.40
2012,07,21,01,27,15.40
2012,07,21,01,28,15.40
2012,07,21,01,30,15.40
2012,07,21,01,31,15.40
2012,07,21,01,32,15.40
2012,07,21,01,34,15.30
2012,07,21,01,35,15.30
2012,07,21,01,36,15.30
2012,07,21,01,37,15.30
2012,07,21,01,39,15.20
2012,07,21,01,40,15.20
2012,07,21,01,42,15.20
2012,07,21,01,43,15.20
2012,07,21,01,45,15.20
2012,07,21,01,46,15.20
2012,07,21,01,48,15.20
2012,07,21,01,49,15.20
2012,07,21,01,50,15.20
2012,07,21,01,51,15.20
2012,07,21,01,52,15.20
2012,07,21,01,54,15.20
2012,07,21,01,55,15.20
2012,07,21,01,56,15.20
2012,07,21,01,58,15.20
2012,07,21,01,59,15.20
2012,07,21,02,00,15.20
2012,07,21,02,02,15.30
2012,07,21,02,03,15.30
2012,07,21,02,04,15.30
2012,07,21,02,05,15.20
2012,07,21,02,07,15.20
2012,07,21,02,09,15.10
2012,07,21,02,10,15.00
2012,07,21,02,12,15.00
2012,07,21,02,13,15.00
2012,07,21,02,14,15.00
2012,07,21,02,16,15.00
2012,07,21,02,17,14.90
2012,07,21,02,18,14.90
2012,07,21,02,19,14.80
2012,07,21,02,21,14.80
2012,07,21,02,23,14.80
2012,07,21,02,24,14.80
2012,07,21,02,25,14.80
2012,07,21,02,26,14.70
2012,07,21,02,27,14.70
2012,07,21,02,28,14.70
2012,07,21,02,30,14.70
2012,07,21,02,31,14.70
2012,07,21,02,33,14.70
2012,07,21,02,34,14.70
2012,07,21,02,36,14.60
2012,07,21,02,38,14.60
2012,07,21,02,40,14.60
2012,07,21,02,41,14.60
2012,07,21,02,43,14.60
2012,07,21,02,44,14.60
2012,07,21,02,45,14.60
2012,07,21,02,46,14.60
2012,07,21,02,47,14.50
2012,07,21,02,48,14.50
2012,07,21,02,49,14.50
2012,07,21,02,50,14.50
2012,07,21,02,51,14.50
2012,07,21,02,53,14.40
2012,07,21,02,54,14.40
2012,07,21,02,56,14.30
2012,07,21,02,57,14.30
2012,07,21,02,59,14.30
2012,07,21,03,00,14.30
2012,07,21,03,01,14.30
2012,07,21,03,02,14.30
2012,07,21,03,03,14.30
2012,07,21,03,05,14.30
2012,07,21,03,07,14.30
2012,07,21,03,09,14.30
2012,07,21,03,11,14.30
2012,07,21,03,12,14.30
2012,07,21,03,13,14.30
2012,07,21,03,15,14.30
2012,07,21,03,16,14.30
2012,07,21,03,17,14.30
2012,07,21,03,18,14.30
2012,07,21,03,19,14.30
2012,07,21,03,20,14.30
2012,07,21,03,21,14.30
2012,07,21,03,22,14.30
2012,07,21,03,23,14.30
2012,07,21,03,24,14.30
2012,07,21,03,25,14.30
2012,07,21,03,26,14.30
2012,07,21,03,27,14.30
2012,07,21,03,28,14.30
2012,07,21,03,29,14.30
2012,07,21,03,30,14.30
2012,07,21,03,32,14.30
2012,07,21,03,34,14.30
2012,07,21,03,35,14.30
2012,07,21,03,37,14.30
2012,07,21,03,38,14.20
2012,07,21,03,39,14.20
2012,07,21,03,40,14.20
2012,07,21,03,42,14.10
2012,07,21,03,43,14.10
2012,07,21,03,44,14.10
2012,07,21,03,46,13.90
2012,07,21,03,47,13.90
2012,07,21,03,48,13.90
2012,07,21,03,49,13.90
2012,07,21,03,51,13.80
2012,07,21,03,52,13.80
2012,07,21,03,54,13.70
2012,07,21,03,55,13.70
2012,07,21,03,56,13.70
2012,07,21,03,57,13.70
2012,07,21,03,58,13.60
2012,07,21,04,00,13.60
2012,07,21,04,01,13.60
2012,07,21,04,02,13.60
2012,07,21,04,03,13.60
2012,07,21,04,04,13.60
2012,07,21,04,05,13.60
2012,07,21,04,06,13.60
2012,07,21,04,07,13.60
2012,07,21,04,08,13.60
2012,07,21,04,09,13.60
2012,07,21,04,10,13.60
2012,07,21,04,11,13.60
2012,07,21,04,12,13.60
2012,07,21,04,14,13.50
2012,07,21,04,15,13.60
2012,07,21,04,16,13.60
2012,07,21,04,17,13.50
2012,07,21,04,18,13.60
2012,07,21,04,19,13.60
2012,07,21,04,21,13.60
2012,07,21,04,22,13.60
2012,07,21,04,23,13.60
2012,07,21,04,24,13.50
2012,07,21,04,26,13.50
2012,07,21,04,27,13.60
2012,07,21,04,28,13.60
2012,07,21,04,30,13.60
2012,07,21,04,32,13.60
2012,07,21,04,33,13.60
2012,07,21,04,34,13.60
2012,07,21,04,35,13.60
2012,07,21,04,36,13.60
2012,07,21,04,37,13.60
2012,07,21,04,38,13.50
2012,07,21,04,40,13.50
2012,07,21,04,41,13.50
2012,07,21,04,42,13.50
2012,07,21,04,44,13.50
2012,07,21,04,45,13.40
2012,07,21,04,47,13.40
2012,07,21,04,48,13.40
2012,07,21,04,49,13.40
2012,07,21,04,50,13.40
2012,07,21,04,51,13.40
2012,07,21,04,52,13.40
2012,07,21,04,54,13.50
2012,07,21,04,55,13.50
2012,07,21,04,56,13.50
2012,07,21,04,57,13.50
2012,07,21,04,58,13.60
2012,07,21,04,59,13.50
2012,07,21,05,00,13.60
2012,07,21,05,01,13.50
2012,07,21,05,02,13.50
2012,07,21,05,03,13.50
2012,07,21,05,04,13.50
2012,07,21,05,05,13.50
2012,07,21,05,06,13.50
2012,07,21,05,07,13.50
2012,07,21,05,08,13.50
2012,07,21,05,10,13.50
2012,07,21,05,11,13.50
2012,07,21,05,12,13.50
2012,07,21,05,13,13.50
2012,07,21,05,14,13.50
2012,07,21,05,15,13.40
2012,07,21,05,16,13.40
2012,07,21,05,17,13.50
2012,07,21,05,18,13.40
2012,07,21,05,19,13.40
2012,07,21,05,20,13.40
2012,07,21,05,21,13.40
2012,07,21,05,22,13.40
2012,07,21,05,23,13.40
2012,07,21,05,24,13.40
2012,07,21,05,25,13.40
2012,07,21,05,26,13.40
2012,07,21,05,27,13.40
2012,07,21,05,28,13.40
2012,07,21,05,29,13.40
2012,07,21,05,30,13.40
2012,07,21,05,31,13.40
2012,07,21,05,32,13.40
2012,07,21,05,33,13.30
2012,07,21,05,34,13.30
2012,07,21,05,35,13.30
2012,07,21,05,36,13.30
2012,07,21,05,37,13.30
2012,07,21,05,38,13.30
2012,07,21,05,39,13.30
2012,07,21,05,40,13.30
2012,07,21,05,41,13.30
2012,07,21,05,42,13.30
2012,07,21,05,43,13.30
2012,07,21,05,44,13.30
2012,07,21,05,45,13.30
2012,07,21,05,46,13.30
2012,07,21,05,47,13.30
2012,07,21,05,48,13.30
2012,07,21,05,49,13.30
2012,07,21,05,50,13.30
2012,07,21,05,51,13.30
2012,07,21,05,52,13.30
2012,07,21,05,53,13.30
2012,07,21,05,54,13.30
2012,07,21,05,55,13.30
2012,07,21,05,56,13.30
2012,07,21,05,57,13.30
2012,07,21,05,58,13.30
2012,07,21,06,00,13.30
2012,07,21,06,01,13.30
2012,07,21,06,02,13.30
2012,07,21,06,03,13.30
2012,07,21,06,04,13.30
2012,07,21,06,05,13.30
2012,07,21,06,06,13.30
2012,07,21,06,07,13.30
2012,07,21,06,08,13.30
2012,07,21,06,09,13.30
2012,07,21,06,10,13.30
2012,07,21,06,11,13.30
2012,07,21,06,12,13.30
2012,07,21,06,13,13.30
2012,07,21,06,14,13.30
2012,07,21,06,15,13.30
2012,07,21,06,16,13.30
2012,07,21,06,17,13.30
2012,07,21,06,18,13.30
2012,07,21,06,19,13.30
2012,07,21,06,20,13.30
2012,07,21,06,21,13.30
2012,07,21,06,22,13.40
2012,07,21,06,23,13.40
2012,07,21,06,24,13.40
2012,07,21,06,25,13.40
2012,07,21,06,26,13.40
2012,07,21,06,27,13.40
2012,07,21,06,28,13.40
2012,07,21,06,29,13.40
2012,07,21,06,30,13.40
2012,07,21,06,31,13.40
2012,07,21,06,32,13.40
2012,07,21,06,33,13.40
2012,07,21,06,34,13.40
2012,07,21,06,35,13.40
2012,07,21,06,36,13.40
2012,07,21,06,37,13.40
2012,07,21,06,38,13.40
2012,07,21,06,39,13.40
2012,07,21,06,40,13.40
2012,07,21,06,41,13.40
2012,07,21,06,42,13.40
2012,07,21,06,43,13.40
2012,07,21,06,44,13.40
2012,07,21,06,45,13.30
2012,07,21,06,46,13.30
2012,07,21,06,47,13.30
2012,07,21,06,48,13.30
2012,07,21,06,49,13.30
2012,07,21,06,50,13.30
2012,07,21,06,51,13.30
2012,07,21,06,52,13.30
2012,07,21,06,53,13.30
2012,07,21,06,54,13.30
2012,07,21,06,55,13.40
2012,07,21,06,56,13.40
2012,07,21,06,57,13.40
2012,07,21,06,58,13.40
2012,07,21,06,59,13.40
2012,07,21,07,00,13.50
2012,07,21,07,01,13.50
2012,07,21,07,02,13.60
2012,07,21,07,03,13.60
2012,07,21,07,04,13.60
2012,07,21,07,05,13.60
2012,07,21,07,06,13.70
2012,07,21,07,07,13.70
2012,07,21,07,08,13.70
2012,07,21,07,09,13.70
2012,07,21,07,10,13.70
2012,07,21,07,11,13.70
2012,07,21,07,12,13.80
2012,07,21,07,13,13.80
2012,07,21,07,14,13.80
2012,07,21,07,15,13.80
2012,07,21,07,16,13.80
2012,07,21,07,17,13.80
2012,07,21,07,18,13.80
2012,07,21,07,19,13.80
2012,07,21,07,20,13.80
2012,07,21,07,21,13.80
2012,07,21,07,22,13.80
2012,07,21,07,23,13.90
2012,07,21,07,24,13.90
2012,07,21,07,25,13.90
2012,07,21,07,26,13.90
2012,07,21,07,27,13.90
2012,07,21,07,28,13.90
2012,07,21,07,29,13.90
2012,07,21,07,30,14.00
2012,07,21,07,31,14.00
2012,07,21,07,32,14.00
2012,07,21,07,33,14.00
2012,07,21,07,34,14.00
2012,07,21,07,35,14.00
2012,07,21,07,36,14.10
2012,07,21,07,37,14.10
2012,07,21,07,38,14.10
2012,07,21,07,39,14.10
2012,07,21,07,40,14.10
2012,07,21,07,41,14.10
2012,07,21,07,42,14.10
2012,07,21,07,43,14.10
2012,07,21,07,44,14.10
2012,07,21,07,45,14.10
2012,07,21,07,46,14.10
2012,07,21,07,47,14.10
2012,07,21,07,48,14.10
2012,07,21,07,50,14.10
2012,07,21,07,51,14.10
2012,07,21,07,52,14.00
2012,07,21,07,53,14.00
2012,07,21,07,54,14.00
2012,07,21,07,55,14.00
2012,07,21,07,56,14.00
2012,07,21,07,57,14.00
2012,07,21,07,58,14.10
2012,07,21,08,00,14.10
2012,07,21,08,01,14.10
2012,07,21,08,03,14.10
2012,07,21,08,04,14.00
2012,07,21,08,05,14.00
2012,07,21,08,06,14.00
2012,07,21,08,08,13.90
2012,07,21,08,09,13.90
2012,07,21,08,10,13.90
2012,07,21,08,11,13.90
2012,07,21,08,12,13.90
2012,07,21,08,13,13.90
2012,07,21,08,14,13.90
2012,07,21,08,15,13.90
2012,07,21,08,16,13.90
2012,07,21,08,17,13.90
2012,07,21,08,18,13.90
2012,07,21,08,19,13.90
2012,07,21,08,20,13.90
2012,07,21,08,21,14.00
2012,07,21,08,22,14.00
2012,07,21,08,23,14.10
2012,07,21,08,24,14.10
2012,07,21,08,25,14.10
2012,07,21,08,26,14.20
2012,07,21,08,27,14.20
2012,07,21,08,28,14.20
2012,07,21,08,29,14.30
2012,07,21,08,30,14.30
2012,07,21,08,31,14.30
2012,07,21,08,32,14.40
2012,07,21,08,33,14.40
2012,07,21,08,34,14.50
2012,07,21,08,35,14.60
2012,07,21,08,36,14.60
2012,07,21,08,37,14.70
2012,07,21,08,38,14.70
2012,07,21,08,39,14.80
2012,07,21,08,40,14.80
2012,07,21,08,41,14.90
2012,07,21,08,42,15.00
2012,07,21,08,43,15.00
2012,07,21,08,44,15.00
2012,07,21,08,45,15.00
2012,07,21,08,46,15.20
2012,07,21,08,47,15.20
2012,07,21,08,48,15.20
2012,07,21,08,49,15.20
2012,07,21,08,50,15.10
2012,07,21,08,51,15.10
2012,07,21,08,52,15.10
2012,07,21,08,53,15.10
2012,07,21,08,54,15.10
2012,07,21,08,55,15.10
2012,07,21,08,56,15.10
2012,07,21,08,57,15.20
2012,07,21,08,58,15.10
2012,07,21,08,59,15.10
2012,07,21,09,00,15.10
2012,07,21,09,01,15.00
2012,07,21,09,02,15.00
2012,07,21,09,03,15.00
2012,07,21,09,04,15.00
2012,07,21,09,05,15.00
2012,07,21,09,06,15.00
2012,07,21,09,07,15.00
2012,07,21,09,08,15.00
2012,07,21,09,09,15.00
2012,07,21,09,10,15.00
2012,07,21,09,11,15.00
2012,07,21,09,12,15.00
2012,07,21,09,13,15.00
2012,07,21,09,14,15.00
2012,07,21,09,15,15.00
2012,07,21,09,16,15.00
2012,07,21,09,17,15.00
2012,07,21,09,18,15.00
2012,07,21,09,19,15.00
2012,07,21,09,20,15.10
2012,07,21,09,21,15.20
2012,07,21,09,22,15.20
2012,07,21,09,23,15.20
2012,07,21,09,24,15.30
2012,07,21,09,25,15.30
2012,07,21,09,26,15.30
2012,07,21,09,27,15.30
2012,07,21,09,28,15.40
2012,07,21,09,29,15.40
2012,07,21,09,30,15.40
2012,07,21,09,31,15.50
2012,07,21,09,32,15.50
2012,07,21,09,33,15.50
2012,07,21,09,34,15.50
2012,07,21,09,35,15.60
2012,07,21,09,36,15.60
2012,07,21,09,37,15.60
2012,07,21,09,38,15.60
2012,07,21,09,39,15.60
2012,07,21,09,40,15.60
2012,07,21,09,41,15.60
2012,07,21,09,42,15.60
2012,07,21,09,43,15.60
2012,07,21,09,44,15.60
2012,07,21,09,45,15.60
2012,07,21,09,46,15.70
2012,07,21,09,47,15.70
2012,07,21,09,48,15.80
2012,07,21,09,49,15.80
2012,07,21,09,50,15.80
2012,07,21,09,51,15.80
2012,07,21,09,52,15.80
2012,07,21,09,53,15.80
2012,07,21,09,54,15.80
2012,07,21,09,55,15.80
2012,07,21,09,56,15.80
2012,07,21,09,57,15.80
2012,07,21,09,58,15.70
2012,07,21,09,59,15.70
2012,07,21,10,00,15.70
2012,07,21,10,01,15.70
2012,07,21,10,02,15.70
2012,07,21,10,03,15.70
2012,07,21,10,04,15.70
2012,07,21,10,05,15.70
2012,07,21,10,06,15.70
2012,07,21,10,07,15.70
2012,07,21,10,08,15.70
2012,07,21,10,09,15.70
2012,07,21,10,10,15.70
2012,07,21,10,11,15.70
2012,07,21,10,12,15.70
2012,07,21,10,13,15.70
2012,07,21,10,14,15.80
2012,07,21,10,15,15.80
2012,07,21,10,16,15.80
2012,07,21,10,17,15.80
2012,07,21,10,18,15.80
2012,07,21,10,19,15.80
2012,07,21,10,20,15.80
2012,07,21,10,21,15.80
2012,07,21,10,22,15.80
2012,07,21,10,23,15.80
2012,07,21,10,24,15.80
2012,07,21,10,25,15.80
2012,07,21,10,26,15.70
2012,07,21,10,27,15.70
2012,07,21,10,28,15.80
2012,07,21,10,29,15.80
2012,07,21,10,30,15.80
2012,07,21,10,31,15.80
2012,07,21,10,32,15.80
2012,07,21,10,33,15.80
2012,07,21,10,34,15.80
2012,07,21,10,35,15.80
2012,07,21,10,36,15.90
2012,07,21,10,37,15.90
2012,07,21,10,38,16.00
2012,07,21,10,39,16.00
2012,07,21,10,40,16.10
2012,07,21,10,41,16.10
2012,07,21,10,42,16.10
2012,07,21,10,43,16.20
2012,07,21,10,44,16.20
2012,07,21,10,45,16.30
2012,07,21,10,46,16.30
2012,07,21,10,47,16.40
2012,07,21,10,48,16.60
2012,07,21,10,49,16.70
2012,07,21,10,50,16.70
2012,07,21,10,51,16.80
2012,07,21,10,52,16.80
2012,07,21,10,53,16.90
2012,07,21,10,54,17.00
2012,07,21,10,55,17.10
2012,07,21,10,56,17.10
2012,07,21,10,57,17.20
2012,07,21,10,58,17.20
2012,07,21,10,59,17.20
2012,07,21,11,00,17.30
2012,07,21,11,01,17.30
2012,07,21,11,02,17.40
2012,07,21,11,03,17.40
2012,07,21,11,04,17.40
2012,07,21,11,05,17.50
2012,07,21,11,06,17.50
2012,07,21,11,07,17.50
2012,07,21,11,08,17.60
2012,07,21,11,09,17.60
2012,07,21,11,10,17.70
2012,07,21,11,11,17.70
2012,07,21,11,12,17.70
2012,07,21,11,13,17.60
2012,07,21,11,14,17.60
2012,07,21,11,15,17.50
2012,07,21,11,16,17.40
2012,07,21,11,18,17.40
2012,07,21,11,19,17.40
2012,07,21,11,20,17.40
2012,07,21,11,21,17.50
2012,07,21,11,23,17.40
2012,07,21,11,24,17.40
2012,07,21,11,25,17.40
2012,07,21,11,26,17.30
2012,07,21,11,27,17.30
2012,07,21,11,28,17.30
2012,07,21,11,29,17.30
2012,07,21,11,30,17.30
2012,07,21,11,31,17.30
2012,07,21,11,32,17.30
2012,07,21,11,33,17.40
2012,07,21,11,34,17.40
2012,07,21,11,35,17.40
2012,07,21,11,36,17.40
2012,07,21,11,37,17.40
2012,07,21,11,38,17.40
2012,07,21,11,39,17.40
2012,07,21,11,40,17.40
2012,07,21,11,41,17.40
2012,07,21,11,42,17.40
2012,07,21,11,43,17.30
2012,07,21,11,44,17.40
2012,07,21,11,45,17.30
2012,07,21,11,46,17.30
2012,07,21,11,47,17.30
2012,07,21,11,48,17.30
2012,07,21,11,49,17.40
2012,07,21,11,50,17.40
2012,07,21,11,51,17.60
2012,07,21,11,52,17.60
2012,07,21,11,53,17.60
2012,07,21,11,54,17.40
2012,07,21,11,55,17.40
2012,07,21,11,56,17.40
2012,07,21,11,57,17.40
2012,07,21,11,58,17.40
2012,07,21,12,00,17.40
2012,07,21,12,01,17.40
2012,07,21,12,02,17.30
2012,07,21,12,03,17.30
2012,07,21,12,04,17.30
2012,07,21,12,05,17.40
2012,07,21,12,06,17.40
2012,07,21,12,07,17.40
2012,07,21,12,08,17.40
2012,07,21,12,09,17.40
2012,07,21,12,10,17.40
2012,07,21,12,11,17.40
2012,07,21,12,12,17.40
2012,07,21,12,13,17.40
2012,07,21,12,14,17.40
2012,07,21,12,15,17.40
2012,07,21,12,16,17.50
2012,07,21,12,17,17.50
2012,07,21,12,18,17.60
2012,07,21,12,19,17.50
2012,07,21,12,20,17.50
2012,07,21,12,21,17.50
2012,07,21,12,22,17.40
2012,07,21,12,23,17.40
2012,07,21,12,24,17.40
2012,07,21,12,25,17.40
2012,07,21,12,26,17.30
2012,07,21,12,27,17.30
2012,07,21,12,28,17.30
2012,07,21,12,29,17.30
2012,07,21,12,30,17.30
2012,07,21,12,31,17.30
2012,07,21,12,32,17.30
2012,07,21,12,33,17.30
2012,07,21,12,34,17.30
2012,07,21,12,35,17.30
2012,07,21,12,36,17.30
2012,07,21,12,37,17.20
2012,07,21,12,38,17.30
2012,07,21,12,39,17.30
2012,07,21,12,40,17.30
2012,07,21,12,41,17.40
2012,07,21,12,42,17.40
2012,07,21,12,43,17.40
2012,07,21,12,44,17.50
2012,07,21,12,45,17.50
2012,07,21,12,46,17.40
2012,07,21,12,47,17.40
2012,07,21,12,48,17.40
2012,07,21,12,49,17.40
2012,07,21,12,50,17.40
2012,07,21,12,51,17.40
2012,07,21,12,52,17.40
2012,07,21,12,53,17.50
2012,07,21,12,54,17.50
2012,07,21,12,55,17.50
2012,07,21,12,56,17.60
2012,07,21,12,57,17.60
2012,07,21,12,58,17.60
2012,07,21,12,59,17.60
2012,07,21,13,00,17.60
2012,07,21,13,01,17.60
2012,07,21,13,02,17.70
2012,07,21,13,03,17.70
2012,07,21,13,04,17.70
2012,07,21,13,05,17.60
2012,07,21,13,06,17.60
2012,07,21,13,07,17.60
2012,07,21,13,08,17.70
2012,07,21,13,09,17.70
2012,07,21,13,10,17.70
2012,07,21,13,11,17.70
2012,07,21,13,12,17.70
2012,07,21,13,13,17.70
2012,07,21,13,14,17.70
2012,07,21,13,15,17.80
2012,07,21,13,16,17.80
2012,07,21,13,17,17.80
2012,07,21,13,18,17.80
2012,07,21,13,19,17.80
2012,07,21,13,20,17.70
2012,07,21,13,21,17.70
2012,07,21,13,22,17.70
2012,07,21,13,23,17.70
2012,07,21,13,24,17.80
2012,07,21,13,25,17.80
2012,07,21,13,26,17.80
2012,07,21,13,27,17.80
2012,07,21,13,28,17.80
2012,07,21,13,29,17.70
2012,07,21,13,30,17.70
2012,07,21,13,31,17.60
2012,07,21,13,32,17.60
2012,07,21,13,33,17.60
2012,07,21,13,34,17.60
2012,07,21,13,35,17.60
2012,07,21,13,36,17.60
2012,07,21,13,37,17.50
2012,07,21,13,38,17.50
2012,07,21,13,39,17.60
2012,07,21,13,40,17.60
2012,07,21,13,41,17.60
2012,07,21,13,42,17.60
2012,07,21,13,43,17.60
2012,07,21,13,44,17.60
2012,07,21,13,45,17.60
2012,07,21,13,46,17.60
2012,07,21,13,47,17.60
2012,07,21,13,48,17.50
2012,07,21,13,49,17.50
2012,07,21,13,50,17.50
2012,07,21,13,51,17.50
2012,07,21,13,52,17.50
2012,07,21,13,53,17.50
2012,07,21,13,54,17.50
2012,07,21,13,55,17.50
2012,07,21,13,56,17.50
2012,07,21,13,57,17.50
2012,07,21,13,58,17.60
2012,07,21,13,59,17.60
2012,07,21,14,00,17.60
2012,07,21,14,01,17.70
2012,07,21,14,02,17.60
2012,07,21,14,03,17.60
2012,07,21,14,05,17.60
2012,07,21,14,07,17.60
2012,07,21,14,08,17.60
2012,07,21,14,09,17.50
2012,07,21,14,10,17.50
2012,07,21,14,11,17.60
2012,07,21,14,12,17.60
2012,07,21,14,13,17.50
2012,07,21,14,14,17.50
2012,07,21,14,15,17.40
2012,07,21,14,16,17.50
2012,07,21,14,17,17.50
2012,07,21,14,18,17.50
2012,07,21,14,19,17.40
2012,07,21,14,20,17.40
2012,07,21,14,21,17.50
2012,07,21,14,22,17.50
2012,07,21,14,23,17.50
2012,07,21,14,24,17.60
2012,07,21,14,25,17.60
2012,07,21,14,26,17.70
2012,07,21,14,27,17.70
2012,07,21,14,28,17.80
2012,07,21,14,29,17.80
2012,07,21,14,30,17.80
2012,07,21,14,31,17.80
2012,07,21,14,32,17.80
2012,07,21,14,33,17.80
2012,07,21,14,34,17.90
2012,07,21,14,35,17.90
2012,07,21,14,36,17.80
2012,07,21,14,37,17.80
2012,07,21,14,38,17.90
2012,07,21,14,39,17.90
2012,07,21,14,40,17.90
2012,07,21,14,41,17.90
2012,07,21,14,42,17.90
2012,07,21,14,43,17.90
2012,07,21,14,44,17.90
2012,07,21,14,45,17.90
2012,07,21,14,46,17.90
2012,07,21,14,47,17.90
2012,07,21,14,48,17.90
2012,07,21,14,49,17.90
2012,07,21,14,50,17.80
2012,07,21,14,51,17.80
2012,07,21,14,52,17.80
2012,07,21,14,53,17.80
2012,07,21,14,54,17.80
2012,07,21,14,55,17.80
2012,07,21,14,56,17.80
2012,07,21,14,57,17.80
2012,07,21,14,58,17.90
2012,07,21,14,59,17.90
2012,07,21,15,00,17.90
2012,07,21,15,01,17.90
2012,07,21,15,02,17.90
2012,07,21,15,03,18.00
2012,07,21,15,04,18.00
2012,07,21,15,05,18.10
2012,07,21,15,06,18.10
2012,07,21,15,07,18.10
2012,07,21,15,08,18.10
2012,07,21,15,09,18.10
2012,07,21,15,10,18.10
2012,07,21,15,11,18.10
2012,07,21,15,12,18.20
2012,07,21,15,13,18.20
2012,07,21,15,14,18.10
2012,07,21,15,15,18.20
2012,07,21,15,16,18.20
2012,07,21,15,17,18.30
2012,07,21,15,18,18.40
2012,07,21,15,19,18.40
2012,07,21,15,20,18.50
2012,07,21,15,21,18.60
2012,07,21,15,22,18.60
2012,07,21,15,23,18.70
2012,07,21,15,24,18.60
2012,07,21,15,25,18.60
2012,07,21,15,26,18.60
2012,07,21,15,27,18.60
2012,07,21,15,28,18.70
2012,07,21,15,29,18.70
2012,07,21,15,30,18.60
2012,07,21,15,31,18.60
2012,07,21,15,32,18.60
2012,07,21,15,33,18.50
2012,07,21,15,34,18.50
2012,07,21,15,35,18.40
2012,07,21,15,36,18.40
2012,07,21,15,37,18.40
2012,07,21,15,38,18.40
2012,07,21,15,39,18.40
2012,07,21,15,40,18.50
2012,07,21,15,41,18.40
2012,07,21,15,42,18.40
2012,07,21,15,43,18.40
2012,07,21,15,44,18.40
2012,07,21,15,45,18.30
2012,07,21,15,46,18.30
2012,07,21,15,47,18.30
2012,07,21,15,48,18.40
2012,07,21,15,49,18.40
2012,07,21,15,50,18.40
2012,07,21,15,51,18.40
2012,07,21,15,52,18.40
2012,07,21,15,53,18.40
2012,07,21,15,54,18.30
2012,07,21,15,55,18.30
2012,07,21,15,56,18.20
2012,07,21,15,57,18.20
2012,07,21,15,58,18.20
2012,07,21,15,59,18.10
2012,07,21,16,00,18.10
2012,07,21,16,01,18.10
2012,07,21,16,02,18.10
2012,07,21,16,03,18.10
2012,07,21,16,04,18.10
2012,07,21,16,05,18.10
2012,07,21,16,06,18.10
2012,07,21,16,07,18.00
2012,07,21,16,08,18.00
2012,07,21,16,09,18.10
2012,07,21,16,10,18.10
2012,07,21,16,11,18.10
2012,07,21,16,12,18.10
2012,07,21,16,13,18.10
2012,07,21,16,14,18.10
2012,07,21,16,15,18.00
2012,07,21,16,16,18.10
2012,07,21,16,17,18.10
2012,07,21,16,18,18.00
2012,07,21,16,19,18.00
2012,07,21,16,20,18.00
2012,07,21,16,21,18.00
2012,07,21,16,22,18.00
2012,07,21,16,23,18.00
2012,07,21,16,24,18.00
2012,07,21,16,25,18.00
2012,07,21,16,26,18.10
2012,07,21,16,27,18.00
2012,07,21,16,28,18.00
2012,07,21,16,29,18.00
2012,07,21,16,30,18.00
2012,07,21,16,31,18.00
2012,07,21,16,32,18.00
2012,07,21,16,33,18.00
2012,07,21,16,34,18.00
2012,07,21,16,35,18.00
2012,07,21,16,36,18.00
2012,07,21,16,37,18.10
2012,07,21,16,38,18.00
2012,07,21,16,39,18.10
2012,07,21,16,40,18.10
2012,07,21,16,41,18.10
2012,07,21,16,42,18.10
2012,07,21,16,43,18.10
2012,07,21,16,44,18.10
2012,07,21,16,45,18.10
2012,07,21,16,46,18.10
2012,07,21,16,47,18.10
2012,07,21,16,48,18.10
2012,07,21,16,49,18.10
2012,07,21,16,50,18.10
2012,07,21,16,51,18.20
2012,07,21,16,52,18.20
2012,07,21,16,53,18.10
2012,07,21,16,54,18.10
2012,07,21,16,55,18.20
2012,07,21,16,56,18.10
2012,07,21,16,57,18.20
2012,07,21,16,58,18.10
2012,07,21,16,59,18.20
2012,07,21,17,00,18.20
2012,07,21,17,01,18.20
2012,07,21,17,02,18.20
2012,07,21,17,03,18.10
2012,07,21,17,04,18.10
2012,07,21,17,05,18.10
2012,07,21,17,06,18.10
2012,07,21,17,07,18.10
2012,07,21,17,08,18.10
2012,07,21,17,09,18.10
2012,07,21,17,10,18.10
2012,07,21,17,11,18.10
2012,07,21,17,12,18.10
2012,07,21,17,13,18.10
2012,07,21,17,14,18.20
2012,07,21,17,15,18.20
2012,07,21,17,16,18.20
2012,07,21,17,17,18.20
2012,07,21,17,18,18.20
2012,07,21,17,19,18.20
2012,07,21,17,20,18.20
2012,07,21,17,21,18.20
2012,07,21,17,22,18.20
2012,07,21,17,23,18.20
2012,07,21,17,24,18.20
2012,07,21,17,25,18.20
2012,07,21,17,26,18.20
2012,07,21,17,27,18.20
2012,07,21,17,28,18.20
2012,07,21,17,29,18.20
2012,07,21,17,30,18.20
2012,07,21,17,31,18.20
2012,07,21,17,32,18.10
2012,07,21,17,33,18.10
2012,07,21,17,34,18.10
2012,07,21,17,35,18.10
2012,07,21,17,36,18.10
2012,07,21,17,37,18.20
2012,07,21,17,38,18.20
2012,07,21,17,39,18.10
2012,07,21,17,40,18.10
2012,07,21,17,41,18.10
2012,07,21,17,42,18.10
2012,07,21,17,43,18.10
2012,07,21,17,44,18.10
2012,07,21,17,45,18.10
2012,07,21,17,46,18.00
2012,07,21,17,47,18.00
2012,07,21,17,48,18.10
2012,07,21,17,49,18.10
2012,07,21,17,50,18.10
2012,07,21,17,51,18.10
2012,07,21,17,52,18.00
2012,07,21,17,53,18.00
2012,07,21,17,54,18.00
2012,07,21,17,55,18.00
2012,07,21,17,56,18.10
2012,07,21,17,57,18.10
2012,07,21,17,58,18.00
2012,07,21,17,59,18.00
2012,07,21,18,01,18.00
2012,07,21,18,02,18.00
2012,07,21,18,03,18.00
2012,07,21,18,04,18.00
2012,07,21,18,05,18.00
2012,07,21,18,06,18.00
2012,07,21,18,07,18.10
2012,07,21,18,08,18.10
2012,07,21,18,10,18.10
2012,07,21,18,11,18.10
2012,07,21,18,12,18.10
2012,07,21,18,13,18.10
2012,07,21,18,14,18.10
2012,07,21,18,15,18.10
2012,07,21,18,16,18.10
2012,07,21,18,17,18.10
2012,07,21,18,18,18.10
2012,07,21,18,19,18.20
2012,07,21,18,20,18.20
2012,07,21,18,21,18.20
2012,07,21,18,22,18.20
2012,07,21,18,23,18.20
2012,07,21,18,24,18.20
2012,07,21,18,25,18.20
2012,07,21,18,26,18.20
2012,07,21,18,27,18.20
2012,07,21,18,28,18.20
2012,07,21,18,29,18.20
2012,07,21,18,30,18.20
2012,07,21,18,31,18.20
2012,07,21,18,32,18.20
2012,07,21,18,33,18.20
2012,07,21,18,34,18.20
2012,07,21,18,35,18.10
2012,07,21,18,36,18.10
2012,07,21,18,37,18.10
2012,07,21,18,38,18.10
2012,07,21,18,39,18.10
2012,07,21,18,40,18.10
2012,07,21,18,41,18.00
2012,07,21,18,42,18.00